Location: Recife
(8.0585°S, 34.8848°W)
Time: 22:37:13
(UTC-03:00)

A-11 Canister half - Pass Details

Date: 23 April 2026
Orbit: 1523 x 1685 km, 47.3° (Epoch: 12 May)

Event Time Altitude Azimuth Distance (km) Brightness Sun altitude
Rises 07:27:01 0° 322° (NW) 4,863 11.5 29.0°
Reaches altitude 10° 07:30:10 10° 323° (NW) 3,859 11.0 29.8°
Maximum altitude 07:40:01 83° 50° (NE) 1,607 9.8 32.1°
Drops below altitude 10° 07:49:33 10° 137° (SE) 3,746 11.4 34.3°
Sets 07:52:34 0° 138° (SE) 4,715 11.8 35.0°
